Volver al catálogo

STARLINK-30979

ActivoComunicacionesVLEO
NORAD 58485·PAYLOAD·🇺🇸 United States

Lanzado Dec 3, 2023 desde Cape Canaveral Space Force Station

Loading…

Próximos Pases (próximas 24 horas)

TLE

ActualizadoSource: CelesTrak SupGP

Época: Sep 14, 2026, 22:20 UTC

1 58485C 23186N   26257.93104167  .00060044  00000+0  21750-2 0  2570
2 58485  42.9997  75.1090 0001429 274.8678 167.9563 15.27546116    18

Sigue STARLINK-30979 en tiempo real con AllMySat

Download on the App Store